This is the latest recevied weather packets stored in our database for station/object K4AMF. If no packets are shown the sender has not sent any weather packets the latest 10 day(s).
| Time | Temp. | Humidity | Pressure | Rain* | Wind** | Luminosity | Snow |
|---|---|---|---|---|---|---|---|
| 1778189651 | 31.67° C | 52% | 1011.8 hPa | 0 mm | - | 330 W/m² | - |
| 1778189348 | 31.67° C | 51% | 1011.8 hPa | 0 mm | - | 391 W/m² | - |
| 1778189044 | 31.67° C | 52% | 1012.1 hPa | 0 mm | - | 432 W/m² | - |
| 1778188741 | 31.67° C | 54% | 1011.9 hPa | 0 mm | - | 429 W/m² | - |
| 1778188437 | 31.11° C | 55% | 1012.2 hPa | 0 mm | - | 381 W/m² | - |
| 1778188134 | 31.11° C | 54% | 1012.3 hPa | 0 mm | - | 228 W/m² | - |
| 1778187831 | 31.11° C | 54% | 1012.6 hPa | 0 mm | - | 427 W/m² | - |
| 1778187528 | 30.56° C | 57% | 1012.8 hPa | 0 mm | - | 271 W/m² | - |
| 1778187224 | 30.56° C | 57% | 1013 hPa | 0 mm | - | 282 W/m² | - |
| 1778186921 | 30.56° C | 57% | 1012.9 hPa | 0 mm | - | 252 W/m² | - |
| 1778186618 | 30.56° C | 60% | 1013.1 hPa | 0 mm | - | 266 W/m² | - |
| 1778186316 | 30° C | 62% | 1013.2 hPa | 0 mm | - | 301 W/m² | - |
| 1778186014 | 29.44° C | 63% | 1013.4 hPa | 0 mm | - | 380 W/m² | - |
| 1778185709 | 29.44° C | 64% | 1013.8 hPa | 0 mm | - | 337 W/m² | - |
| 1778185406 | 29.44° C | 65% | 1013.9 hPa | 0 mm | - | 238 W/m² | - |
| 1778185101 | 29.44° C | 65% | 1014.2 hPa | 0 mm | - | 319 W/m² | - |
| 1778184797 | 28.89° C | 66% | 1014.2 hPa | 0 mm | - | 335 W/m² | - |
| 1778184494 | 28.89° C | 66% | 1013.9 hPa | 0 mm | - | 155 W/m² | - |
| 1778184190 | 28.89° C | 66% | 1014.1 hPa | 0 mm | - | 141 W/m² | - |
| 1778183886 | 28.89° C | 66% | 1014.2 hPa | 0 mm | - | 122 W/m² | - |
| 1778183584 | 28.89° C | 66% | 1014.1 hPa | 0 mm | - | 125 W/m² | - |
| 1778183281 | 28.89° C | 66% | 1013.8 hPa | 0 mm | - | 168 W/m² | - |
| 1778182976 | 28.89° C | 66% | 1013.7 hPa | 0 mm | - | 188 W/m² | - |
| 1778182673 | 29.44° C | 65% | 1014 hPa | 0 mm | - | 244 W/m² | - |
| 1778182370 | 29.44° C | 65% | 1014.1 hPa | 0 mm | - | 344 W/m² | - |
* Rain latest hour (hover to see other rain measurements)
** Current wind speed in m/s (hover to see current wind gust speed)